Flag for France Weather past 2 weeks in Rouen, France

Now
50 °F

Light rain. Mostly cloudy.


Feels Like: 45 °F
Forecast: 43 / 53 °F
Wind: 13 mph from Southwest

Location: Rouen Airport

Current Time: Dec 23, 2014 at 6:27:21 AM

Latest Report: Dec 23, 2014 at 6:00 AM


Visibility: N/A

Pressure: 30.24 "Hg

Humidity: 88%

Dew point: 46 °F

Location of RouenLocation

Historic Weather in Rouen — Graph

°F

Rouen temperature yesterday

Maximum temperature yesterday: 52 °F (at 12:00 PM)
Minimum temperature yesterday: 46 °F (at 12:00 AM)
Average temperature yesterday: 49 °F

Past Weeks' High & Low Weather Summary

 TemperatureHumidityPressure
High54 °F (Dec 18, 12:00 AM)100% (Dec 8, 5:30 AM)30.54 "Hg (Dec 8, 5:30 AM)
Low28 °F (Dec 14, 5:00 AM)70% (Dec 8, 5:00 PM)29.47 "Hg (Dec 12, 2:30 PM)
Average44 °F89%30.08 "Hg
* Reported Dec 8 5:00 AM — Dec 23 5:30 AM, Rouen, Weather by CustomWeather, © 2014

Note: Actual official high and low records may vary slightly from our data, if they occured in-between our weather recording intervals... More about our weather records

Advertising

Rouen weather history for previous 24 hours

 ConditionsComfort  
Time TempWeatherWind HumidityBarometerVisibility
5:30 AM
Dec 23
50 °FOvercast.12 mph88%30.24 "HgN/A
5:00 AM50 °FMostly cloudy.13 mph88%30.24 "HgN/A
4:30 AM50 °FMostly cloudy.12 mph88%30.24 "HgN/A
4:00 AM50 °FOvercast.10 mph94%30.27 "HgN/A
3:30 AM50 °FOvercast.12 mph94%30.27 "HgN/A
3:00 AM50 °FMostly cloudy.12 mph88%30.27 "HgN/A
2:30 AM50 °FMostly cloudy.13 mph88%30.24 "HgN/A
2:00 AM50 °FOvercast.14 mph88%30.27 "HgN/A
1:30 AM50 °FMostly cloudy.15 mph94%30.27 "HgN/A
1:00 AM50 °FOvercast.14 mph94%30.27 "HgN/A
12:30 AM50 °FMostly cloudy.13 mph94%30.27 "HgN/A
12:00 AM50 °FPassing clouds.12 mph94%30.27 "HgN/A
11:30 PM
Dec 22
50 °FMostly cloudy.12 mph94%30.27 "HgN/A
10:30 PM50 °FDrizzle. Mostly cloudy.10 mph94%30.27 "Hg4 mi
10:00 PM50 °FDrizzle. Fog.10 mph94%30.27 "Hg3 mi
9:30 PM50 °FDrizzle. Low clouds.13 mph94%30.27 "Hg4 mi
9:00 PM50 °FDrizzle. Low clouds.15 mph94%30.27 "HgN/A
8:30 PM50 °FDrizzle. Low clouds.13 mph94%30.27 "HgN/A
8:00 PM50 °FDrizzle. Mostly cloudy.15 mph94%30.27 "HgN/A
7:30 PM50 °FMostly cloudy.15 mph94%30.27 "HgN/A
7:00 PM50 °FLow clouds.15 mph94%30.27 "HgN/A
6:30 PM52 °FMostly cloudy.15 mph88%30.27 "HgN/A
6:00 PM52 °FOvercast.14 mph88%30.27 "HgN/A
5:30 PM52 °FOvercast.13 mph88%30.27 "HgN/A
5:00 PM52 °FLow clouds.14 mph88%30.27 "HgN/A
4:30 PM52 °FMostly cloudy.14 mph88%30.27 "HgN/A
4:00 PM52 °FLow clouds.15 mph88%30.27 "HgN/A
3:30 PM52 °FLow clouds.15 mph88%30.27 "HgN/A
3:00 PM52 °FLow clouds.16 mph88%30.27 "HgN/A
2:30 PM52 °FLow clouds.17 mph88%30.27 "HgN/A
2:00 PM52 °FOvercast.17 mph88%30.27 "HgN/A
1:30 PM52 °FOvercast.18 mph88%30.30 "HgN/A
1:00 PM52 °FOvercast.16 mph88%30.30 "HgN/A
12:30 PM52 °FOvercast.17 mph88%30.30 "HgN/A
12:00 PM52 °FOvercast.14 mph88%30.30 "HgN/A
11:30 AM50 °FOvercast.15 mph88%30.33 "HgN/A
11:00 AM50 °FLow clouds.16 mph88%30.33 "HgN/A
10:30 AM50 °FLow clouds.17 mph88%30.33 "HgN/A
10:00 AM48 °FLow clouds.15 mph94%30.33 "HgN/A
9:30 AM48 °FLow clouds.17 mph94%30.30 "HgN/A
9:00 AM48 °FLow clouds.16 mph87%30.30 "HgN/A
8:30 AM48 °FLow clouds.17 mph87%30.30 "HgN/A
8:00 AM48 °FLow clouds.15 mph87%30.30 "HgN/A
7:30 AM48 °FOvercast.17 mph87%30.33 "HgN/A
7:00 AM48 °FOvercast.18 mph87%30.33 "HgN/A
6:30 AM48 °FOvercast.16 mph82%30.30 "HgN/A
6:00 AM48 °FOvercast.15 mph82%30.30 "HgN/A
Weather by CustomWeather, © 2014

See weather overviewHow to use our weather pages